Temperature
33 33 33 34 35 35 34 34 33 34 34 34 33 32 32 32 31 30 29 28 27 26 25 25 24 23 22 21 21 20 20 20 20 19 19 19 19 19 19 19 19 19 19 18
33 33 34 35 35 35 34 34 34 34 34 34 33 32 33 32 32 31 30 29 28 27 26 25 24 23 22 21 21 20 20 20 20 20 19 19 19 19 19 19 19 19 19 19
33 34 35 35 34 34 34 34 34 34 34 34 33 31 31 32 32 31 31 30 29 27 26 25 24 23 22 22 21 21 20 20 20 19 19 19 19 19 19 19 19 19 19 19
34 35 35 34 34 34 33 35 35 34 33 32 33 30 30 31 31 32 31 30 29 28 27 25 24 23 23 22 21 21 20 20 20 19 19 19 19 19 19 19 19 19 19 18
33 34 34 34 34 34 34 35 35 34 33 32 33 31 30 30 31 32 32 31 30 28 27 26 25 23 23 22 21 21 20 20 20 20 19 19 19 19 19 19 19 19 18 18
34 35 35 34 35 35 35 34 34 33 33 31 32 32 30 31 31 32 32 31 30 29 27 26 25 24 23 22 21 21 20 20 20 20 20 19 19 19 19 19 19 18 18 18
32 34 34 35 34 34 34 33 31 30 30 31 33 33 32 33 33 32 32 31 30 29 27 26 25 24 23 22 22 21 20 20 20 20 20 19 19 19 19 19 18 18 18 18
31 32 34 34 34 33 33 33 31 30 30 31 32 32 33 34 33 33 32 31 30 29 27 26 25 24 23 22 22 21 20 20 20 20 20 19 19 19 19 18 18 18 18 18
32 32 34 35 35 34 33 33 34 32 32 31 31 32 33 34 33 33 32 31 30 29 28 26 25 24 23 22 22 21 20 20 20 20 19 19 19 19 19 18 18 18 18 18
33 32 33 34 34 34 34 34 33 32 30 30 31 31 31 32 32 33 32 31 30 29 28 26 25 24 23 22 22 21 20 20 20 20 19 19 19 19 19 18 18 18 18 17
33 32 32 33 32 32 33 33 32 32 32 31 30 30 33 32 32 32 32 31 30 29 28 26 25 24 24 22 22 21 20 20 20 19 19 19 18 18 18 18 18 18 17 17
32 32 31 32 34 34 34 33 33 31 30 31 31 31 34 33 33 32 32 31 30 29 28 26 25 24 24 23 22 21 20 20 20 20 19 19 18 18 18 18 18 17 17 17
31 30 30 30 32 33 33 33 33 33 32 31 31 31 33 33 33 32 31 30 29 28 27 26 25 24 23 23 22 21 20 20 20 20 19 19 18 18 18 18 17 17 17 16
31 30 30 30 31 32 32 32 33 33 31 31 32 32 32 33 32 32 30 30 29 27 26 26 25 24 23 22 22 21 20 20 20 19 19 18 18 18 18 17 17 17 16 16
30 29 30 31 32 33 32 32 33 32 32 32 32 32 32 32 32 31 30 29 28 27 26 25 24 23 23 22 21 21 20 20 19 19 19 18 18 18 17 17 17 16 16 16
29 28 29 29 31 32 32 33 33 33 33 33 33 32 33 32 32 30 29 28 28 26 25 25 24 23 22 22 21 21 20 20 19 19 18 18 18 17 17 17 16 16 15 15
28 27 27 28 30 31 30 32 32 33 33 33 32 32 32 32 31 30 29 28 26 25 25 24 23 23 22 22 21 20 20 19 19 18 18 18 17 17 16 16 16 16 15 15
27 26 27 28 28 28 30 33 33 33 33 33 33 33 32 31 30 29 28 27 26 25 24 23 23 22 22 21 21 20 20 19 19 18 18 17 17 17 16 16 16 15 15 15
28 26 27 27 27 28 30 32 32 31 31 32 32 31 31 30 29 28 27 27 26 25 24 23 23 22 21 21 20 20 19 19 18 18 18 17 17 17 16 16 16 15 15 14
28 26 26 26 26 27 29 31 32 31 29 30 30 30 30 29 29 28 26 26 25 24 23 23 22 22 21 20 20 19 19 19 18 18 17 17 17 16 16 16 16 15 15 14
26 25 25 26 26 27 29 30 31 29 27 28 29 29 28 28 27 26 25 25 24 23 23 22 22 21 21 20 20 19 19 18 18 18 17 17 17 16 16 16 15 15 14 14
26 25 25 25 26 26 28 29 27 26 26 27 27 27 27 26 26 25 24 24 23 22 22 21 21 21 20 20 19 19 18 18 18 17 17 17 16 16 15 15 15 14 14 14
26 26 26 25 25 24 25 25 25 25 25 26 26 26 26 25 25 24 23 23 22 21 21 21 20 20 19 19 19 19 18 18 18 17 17 16 16 15 15 15 15 14 14 13
25 26 25 24 24 24 23 23 23 24 24 24 25 25 25 24 24 23 22 22 21 21 20 20 19 19 19 18 18 18 18 18 17 17 16 16 15 15 15 15 14 14 14 13
23 24 24 23 23 23 23 22 22 22 23 23 24 24 24 23 23 22 21 21 20 20 19 19 19 19 19 18 18 18 18 17 17 17 16 16 15 15 15 15 14 14 14 13
23 23 23 22 22 23 22 21 21 21 22 22 23 23 22 22 22 21 21 20 20 19 19 19 18 18 18 18 17 17 17 17 17 16 16 15 15 15 15 14 14 14 13 13
Wind_Speed
12 12 12 9 8 9 5 3 4 4 5 3 5 10 10 12 12 13 14 14 13 13 12 11 11 10 10 8 7 6 5 5 3 2 2 2 3 2 2 2 3 4 3 2
12 14 13 9 7 8 7 6 4 5 6 3 4 6 11 12 12 12 13 14 13 13 13 12 10 10 10 9 7 6 6 6 5 3 2 2 2 2 2 1 2 3 2 3
16 10 9 10 9 9 9 7 5 3 3 5 4 4 7 10 10 11 12 13 14 14 14 13 11 10 10 9 8 7 6 6 5 4 3 2 1 1 0 2 2 2 2 2
14 12 9 11 11 10 10 7 5 4 4 6 5 4 5 9 11 12 12 12 14 14 14 14 13 11 10 10 9 7 6 5 4 3 3 3 3 2 2 1 1 2 3 3
13 13 11 12 12 10 9 6 6 7 7 9 7 4 6 8 11 12 13 12 13 14 14 14 13 11 10 10 9 8 7 5 4 3 3 3 2 2 1 1 2 2 2 2
15 12 11 12 11 10 8 8 8 9 9 10 9 6 5 7 8 9 11 12 12 13 14 13 13 11 10 9 9 10 8 6 5 4 3 2 2 1 0 0 1 1 1 1
16 15 13 12 12 12 11 10 7 7 8 9 9 6 5 9 9 8 10 11 12 12 13 14 13 13 10 10 9 9 9 7 5 4 3 2 2 2 1 1 1 1 0 0
16 16 16 14 14 12 13 14 10 7 7 6 6 4 6 11 10 9 10 12 13 13 13 14 14 13 11 10 10 9 9 7 6 4 3 1 2 2 1 2 1 0 0 1
14 15 15 15 14 15 14 14 15 12 12 7 5 4 7 11 11 10 11 13 14 14 14 15 15 14 12 11 10 9 9 7 6 5 4 2 1 0 0 0 0 1 1 1
14 11 14 15 13 16 15 13 9 10 8 8 6 6 5 11 11 11 11 11 14 15 15 14 13 13 12 11 10 10 9 7 6 5 4 3 2 2 2 1 2 2 3 3
18 13 13 15 16 16 15 15 11 8 9 9 6 2 5 8 9 9 11 11 12 14 15 14 14 13 13 12 12 10 9 8 6 5 4 3 3 3 3 2 3 3 3 3
15 12 13 15 16 16 16 17 14 10 8 9 8 4 2 7 9 9 9 11 10 11 14 15 14 13 12 13 12 11 10 9 7 6 5 5 4 4 4 4 4 4 4 3
10 10 12 14 15 17 17 16 16 15 12 11 11 5 6 7 7 9 11 11 11 11 11 13 14 13 11 11 11 11 10 9 9 8 7 5 5 5 5 4 5 4 4 4
7 11 14 16 13 14 17 18 17 16 12 12 12 7 7 8 8 9 11 12 12 12 11 12 13 12 11 11 11 10 10 10 9 8 8 6 6 5 5 5 5 4 5 5
9 13 16 18 17 14 15 17 18 17 16 14 10 9 7 8 9 10 10 11 11 11 12 12 13 12 12 11 10 10 10 9 8 8 8 7 6 6 6 6 5 5 5 6
9 10 14 18 19 17 16 17 17 18 16 16 13 7 4 8 8 9 10 11 11 11 11 12 13 13 12 12 11 10 10 9 9 8 8 7 7 6 6 6 6 6 6 6
11 10 12 16 18 18 19 16 16 15 16 15 13 7 5 8 9 10 10 10 11 12 11 11 12 12 11 11 11 10 10 10 9 8 8 8 7 7 6 7 7 7 6 6
9 8 9 14 15 19 15 14 14 14 14 12 9 4 5 6 8 9 9 9 9 11 12 11 12 13 12 11 11 11 11 10 10 9 8 8 8 8 7 7 7 6 5 6
10 9 11 13 16 16 13 11 11 10 7 4 4 2 3 6 7 7 7 7 8 9 9 10 12 13 13 12 12 11 11 10 10 9 8 8 8 8 7 7 6 5 5 6
14 9 11 12 14 15 11 10 8 8 7 1 1 0 1 4 4 3 6 7 7 8 9 9 11 12 13 12 12 12 11 10 10 9 8 8 7 7 7 7 6 5 5 5
16 14 15 16 15 10 7 7 7 9 3 1 1 2 2 3 3 4 7 7 7 9 10 10 11 11 11 12 11 11 10 10 9 9 9 8 7 7 7 7 6 6 5 5
14 14 14 15 15 9 4 2 2 3 5 4 3 3 4 5 6 7 8 9 9 10 11 11 10 10 10 11 11 10 9 9 9 9 9 9 8 7 7 7 6 5 6 6
9 7 7 5 4 4 7 6 6 6 5 4 3 3 3 4 6 7 7 9 9 9 10 10 11 11 10 10 10 10 9 10 10 9 9 8 7 6 7 7 6 5 5 5
5 3 4 3 4 4 6 7 7 6 5 4 3 2 2 5 6 7 7 8 8 8 9 9 10 11 10 9 9 8 9 9 10 10 8 7 7 7 6 5 5 4 3 3
4 4 3 2 2 3 4 5 6 6 5 4 4 4 4 5 7 7 7 8 8 7 8 8 8 9 10 10 9 9 9 10 10 9 8 8 7 6 5 4 3 2 3 1
3 3 2 2 1 1 4 4 5 4 4 4 4 4 4 5 6 6 6 6 7 7 7 7 8 9 9 10 9 9 9 10 10 9 9 8 7 7 6 6 5 10 7 7
Wind_Direction
221 231 238 231 231 252 255 217 181 144 137 192 158 152 170 173 178 174 175 175 176 174 170 167 170 167 157 151 154 165 174 165 176 194 198 205 207 209 191 188 181 176 216 229
225 232 239 243 238 257 261 254 203 165 158 202 184 173 173 177 184 179 177 175 174 172 167 166 167 163 157 154 160 165 171 172 178 191 201 219 217 209 185 170 153 179 200 231
230 228 228 238 238 246 250 248 246 229 189 222 207 215 182 174 180 179 181 178 176 175 169 167 172 169 165 165 171 176 167 169 179 186 202 227 217 266 183 152 158 191 203 228
234 232 228 236 238 237 248 250 253 261 253 264 236 220 196 180 188 184 184 181 177 174 169 169 173 173 170 168 168 155 154 158 168 179 208 219 208 202 204 194 183 193 201 212
229 229 229 235 234 232 249 257 253 258 259 264 260 247 181 189 194 186 183 181 175 171 168 167 167 167 169 168 163 156 150 153 159 172 202 232 234 213 201 177 197 206 206 212
245 232 228 237 237 232 246 250 252 264 263 259 253 246 186 181 183 179 175 171 168 167 162 158 157 156 162 161 160 156 150 154 163 182 195 213 240 246 265 275 191 210 198 177
235 232 225 232 233 224 229 236 235 240 241 245 244 237 155 153 157 167 169 162 164 161 157 156 157 158 161 161 158 152 150 154 162 170 183 194 220 217 223 259 248 235 243 162
221 223 217 217 228 229 226 234 238 247 251 253 242 225 145 137 139 142 145 159 161 161 160 159 159 157 161 159 153 150 149 151 154 154 161 181 218 209 213 228 246 186 107 44
225 228 211 210 220 234 231 234 247 257 269 265 244 205 148 138 140 143 149 157 158 160 160 160 158 159 159 157 153 149 143 146 151 153 150 152 157 189 244 259 92 37 28 58
248 242 218 207 213 230 244 244 248 254 269 270 242 237 196 154 158 157 155 158 156 158 158 157 160 159 157 155 148 143 144 144 145 150 158 153 142 120 94 72 77 68 52 58
241 248 229 211 210 220 224 238 245 259 264 267 265 257 143 152 163 163 159 155 156 158 154 158 159 156 153 151 149 146 145 144 145 140 131 115 116 113 110 108 90 79 67 69
231 244 239 224 217 224 230 232 231 237 254 271 272 256 130 147 154 154 149 146 149 149 152 156 153 148 152 151 151 151 151 149 146 139 129 118 107 98 94 86 82 79 74 73
228 244 241 231 222 216 229 234 237 236 238 247 256 232 158 147 149 145 142 145 144 143 143 147 147 148 154 150 148 151 152 149 145 138 132 127 115 104 96 90 84 78 73 68
239 241 245 239 228 217 218 228 235 240 240 243 243 220 178 165 153 142 145 149 149 146 147 152 149 151 152 148 148 150 149 148 147 143 140 129 119 116 110 100 87 80 79 74
236 238 247 260 260 245 227 223 228 236 245 250 249 230 188 159 151 148 148 149 152 153 157 156 153 151 150 148 149 150 148 144 142 141 137 131 125 120 110 99 90 81 82 84
225 250 248 254 257 251 246 234 230 231 237 244 247 244 164 147 145 141 148 157 158 160 163 159 156 153 154 153 154 151 149 145 142 142 139 132 129 123 116 112 104 92 83 80
214 231 246 247 248 252 245 240 233 232 234 241 243 231 187 157 149 152 153 161 161 164 168 164 160 156 157 157 153 154 149 145 143 142 141 140 137 129 124 115 103 97 95 89
229 230 237 247 247 245 247 249 247 240 235 235 239 209 170 146 140 139 149 160 164 166 170 164 162 158 158 156 153 151 149 148 144 144 142 140 135 129 122 116 111 107 103 96
220 223 234 242 242 242 244 243 243 238 235 253 246 181 143 134 138 142 143 154 160 162 159 160 161 158 157 158 155 151 150 148 146 146 141 137 134 131 130 124 120 118 113 109
214 211 230 238 243 241 241 243 237 238 215 231 254 82 140 134 171 154 135 137 144 145 146 151 152 148 152 153 151 152 153 151 152 148 142 136 137 140 138 134 131 127 124 121
205 207 223 238 242 245 272 260 232 227 208 42 54 66 90 112 98 117 128 126 133 136 140 144 146 144 146 147 149 154 153 153 150 143 140 137 140 140 138 135 135 140 136 123
209 206 214 230 238 233 323 246 224 64 53 53 50 61 92 102 104 115 122 126 134 139 141 144 141 139 141 146 150 153 152 148 143 142 143 142 146 150 144 141 142 143 140 139
222 216 208 219 212 67 40 58 65 66 59 54 42 50 107 117 121 125 126 128 133 136 139 142 142 141 144 148 151 154 148 145 146 147 147 147 149 142 145 151 152 156 166 168
229 250 199 166 133 92 63 59 53 41 43 45 53 48 112 123 126 131 135 135 136 136 136 138 145 148 149 150 151 148 143 144 149 149 148 150 151 147 146 153 162 165 178 178
274 262 218 175 137 101 64 46 44 31 25 38 46 67 81 102 117 125 131 135 138 138 139 143 149 152 153 151 150 151 148 149 153 154 155 157 157 153 137 118 71 100 67 63
282 289 257 190 161 122 103 62 47 31 22 37 52 62 74 94 109 121 132 134 134 136 139 145 151 155 155 154 153 155 156 159 159 162 167 169 166 160 154 139 103 52 65 77
Height
1489 1491 1490 1485 1482 1483 1485 1489 1494 1490 1487 1492 1497 1502 1504 1507 1510 1514 1519 1524 1528 1532 1536 1539 1542 1544 1545 1547 1548 1549 1550 1551 1552 1553 1553 1554 1555 1556 1556 1556 1556 1556 1556 1557
1488 1490 1482 1479 1480 1482 1485 1490 1491 1488 1485 1491 1496 1498 1498 1503 1507 1510 1515 1520 1525 1530 1533 1537 1540 1542 1544 1545 1547 1548 1549 1550 1551 1552 1553 1553 1554 1555 1555 1555 1555 1555 1556 1556
1488 1483 1479 1480 1482 1486 1486 1489 1489 1490 1486 1487 1495 1505 1501 1500 1504 1508 1512 1516 1521 1526 1530 1534 1538 1540 1542 1544 1545 1547 1548 1549 1550 1551 1552 1553 1553 1554 1554 1554 1554 1554 1555 1555
1482 1478 1480 1483 1484 1486 1492 1481 1484 1488 1496 1500 1495 1517 1507 1501 1503 1505 1508 1512 1517 1522 1527 1531 1535 1538 1540 1542 1544 1545 1546 1547 1548 1549 1550 1552 1552 1552 1553 1553 1554 1554 1554 1554
1481 1478 1481 1484 1482 1482 1484 1480 1483 1487 1494 1501 1495 1508 1511 1500 1503 1501 1504 1508 1513 1519 1524 1528 1532 1536 1539 1541 1543 1544 1545 1546 1547 1548 1549 1550 1551 1551 1552 1552 1552 1553 1553 1553
1476 1474 1477 1479 1477 1479 1480 1483 1486 1489 1494 1513 1500 1506 1513 1499 1498 1497 1500 1505 1511 1516 1521 1526 1530 1534 1537 1540 1541 1542 1543 1544 1545 1546 1547 1548 1549 1550 1551 1551 1551 1551 1552 1552
1484 1477 1475 1477 1481 1481 1483 1495 1511 1519 1517 1515 1491 1496 1500 1488 1488 1492 1497 1503 1509 1514 1519 1524 1529 1532 1536 1538 1540 1541 1542 1543 1544 1545 1546 1547 1548 1548 1549 1550 1550 1551 1551 1551
1490 1489 1475 1475 1480 1484 1484 1490 1512 1528 1523 1508 1494 1498 1488 1480 1485 1490 1495 1501 1507 1512 1517 1522 1527 1530 1534 1537 1538 1540 1541 1542 1544 1544 1545 1546 1547 1547 1547 1548 1549 1549 1550 1550
1481 1483 1468 1471 1474 1477 1485 1487 1482 1496 1501 1510 1504 1493 1485 1480 1485 1490 1494 1499 1504 1510 1515 1520 1525 1529 1532 1535 1537 1539 1539 1541 1543 1544 1544 1545 1545 1546 1546 1547 1547 1548 1548 1548
1469 1480 1469 1468 1473 1475 1477 1479 1486 1498 1516 1520 1511 1502 1496 1488 1488 1488 1493 1497 1502 1508 1514 1520 1524 1528 1530 1533 1536 1538 1539 1541 1542 1543 1544 1545 1545 1545 1545 1545 1546 1547 1547 1547
1468 1478 1474 1470 1477 1481 1482 1484 1486 1490 1496 1512 1520 1511 1480 1483 1485 1487 1491 1496 1501 1505 1511 1517 1522 1526 1529 1532 1535 1537 1539 1541 1542 1543 1544 1545 1545 1545 1545 1545 1546 1546 1547 1547
1467 1473 1479 1473 1466 1468 1473 1478 1483 1500 1503 1498 1505 1505 1476 1478 1480 1486 1491 1496 1501 1505 1509 1515 1520 1524 1528 1531 1534 1536 1538 1540 1541 1543 1544 1544 1545 1545 1545 1546 1546 1546 1546 1546
1469 1477 1490 1487 1479 1472 1474 1473 1475 1479 1488 1497 1505 1500 1477 1478 1482 1486 1491 1496 1501 1506 1510 1514 1518 1522 1527 1530 1533 1536 1538 1540 1541 1543 1544 1544 1545 1545 1546 1546 1546 1546 1547 1547
1471 1477 1484 1489 1480 1471 1476 1475 1473 1478 1490 1493 1491 1489 1480 1478 1482 1487 1492 1497 1501 1506 1510 1514 1517 1521 1525 1529 1532 1535 1537 1539 1541 1542 1543 1544 1545 1546 1546 1547 1547 1547 1547 1547
1471 1479 1477 1472 1465 1464 1467 1471 1472 1476 1478 1485 1482 1480 1477 1478 1481 1487 1492 1497 1501 1506 1509 1513 1517 1521 1525 1528 1531 1534 1536 1538 1540 1542 1543 1544 1545 1546 1546 1547 1547 1547 1547 1547
1473 1479 1479 1478 1468 1464 1467 1465 1467 1470 1472 1474 1476 1477 1472 1477 1481 1487 1492 1496 1500 1505 1509 1513 1516 1520 1523 1527 1530 1533 1535 1537 1539 1541 1543 1544 1545 1545 1546 1546 1547 1547 1548 1548
1474 1482 1486 1485 1473 1471 1476 1465 1465 1467 1466 1469 1475 1474 1472 1476 1481 1487 1491 1496 1499 1504 1508 1512 1515 1518 1522 1525 1528 1531 1534 1536 1539 1540 1542 1543 1544 1545 1546 1547 1547 1547 1548 1548
1476 1481 1484 1484 1483 1494 1472 1456 1456 1461 1463 1463 1466 1468 1472 1477 1481 1486 1490 1494 1499 1502 1506 1510 1513 1517 1520 1524 1527 1530 1533 1535 1537 1539 1541 1542 1544 1545 1545 1546 1546 1547 1548 1548
1472 1479 1484 1485 1487 1481 1467 1458 1458 1464 1467 1465 1467 1470 1473 1476 1482 1486 1491 1494 1497 1501 1504 1507 1511 1515 1519 1522 1526 1529 1532 1534 1536 1538 1540 1541 1543 1544 1545 1546 1546 1547 1548 1548
1469 1475 1483 1484 1490 1489 1471 1458 1457 1462 1473 1470 1471 1473 1474 1477 1483 1488 1491 1494 1497 1500 1504 1506 1510 1513 1517 1521 1524 1527 1530 1533 1535 1537 1539 1540 1542 1543 1545 1545 1546 1547 1548 1548
1473 1477 1483 1484 1485 1476 1463 1458 1460 1477 1480 1473 1473 1475 1477 1480 1484 1490 1491 1494 1497 1500 1503 1506 1510 1513 1516 1519 1523 1526 1529 1532 1535 1537 1538 1540 1541 1543 1544 1545 1546 1547 1548 1548
1468 1474 1479 1480 1484 1482 1466 1463 1469 1476 1475 1475 1476 1478 1480 1482 1486 1490 1492 1495 1498 1501 1504 1506 1509 1512 1515 1519 1522 1525 1528 1531 1533 1536 1537 1539 1540 1542 1543 1544 1545 1546 1547 1548
1462 1464 1466 1472 1478 1475 1473 1473 1474 1476 1477 1477 1479 1480 1482 1484 1487 1490 1493 1495 1498 1501 1504 1506 1509 1512 1515 1518 1521 1524 1527 1529 1531 1534 1535 1537 1539 1540 1542 1543 1544 1546 1547 1548
1464 1462 1465 1471 1474 1474 1476 1477 1477 1478 1479 1479 1480 1482 1483 1485 1488 1491 1494 1496 1499 1502 1504 1506 1509 1511 1514 1517 1520 1523 1525 1528 1530 1532 1534 1536 1538 1539 1540 1542 1543 1545 1546 1547
1467 1465 1467 1472 1474 1475 1478 1480 1480 1480 1481 1481 1482 1483 1485 1487 1489 1491 1494 1497 1500 1502 1504 1506 1508 1511 1513 1516 1519 1521 1524 1526 1528 1530 1532 1534 1536 1537 1539 1540 1542 1543 1544 1546
1468 1468 1470 1474 1476 1477 1481 1481 1482 1483 1483 1483 1484 1486 1487 1488 1490 1492 1495 1497 1499 1502 1504 1506 1508 1510 1512 1515 1517 1520 1522 1525 1527 1529 1531 1533 1534 1536 1537 1538 1540 1541 1543 1544